Regional Weather Roundup
Issued by NWS Albany, NY

Home | Current Version | Previous Version | Text Only | Print | Product List | Glossary On
Versions: 1 2 3 4 5 6 7 8 9 10 11 12 13 14 15 16 17 18 19 20 21 22 23 24 25 26 27
000
ASUS41 KALY 261410
RWRALY

NEW YORK STATE HOURLY WEATHER ROUNDUP
NATIONAL WEATHER SERVICE ALBANY NY
1000 AM EDT WED JUL 26 2017

NOTE: "FAIR" INDICATES FEW OR NO CLOUDS BELOW 12,000 FEET WITH NO
SIGNIFICANT WEATHER AND/OR NO OBSTRUCTIONS TO VISIBILITY.

NYZ032-033-038>043-046>054-057>066-NYZ062>081-082-084-261500-
EAST


CITY           SKY/WX    TMP DP  RH WIND       PRES   REMARKS
ALBANY         CLOUDY    62  59  90 VRB3      30.26F FOG
GLENS FALLS    CLOUDY    61  58  90 SE5       30.25F FOG
POUGHKEEPSIE   SUNNY     68  57  68 E5        30.25F
NEWBURGH       MOSUNNY   68  59  73 CALM      30.28F
MONTGOMERY     SUNNY     69  59  70 CALM      30.26F
WHITE PLAINS   MOSUNNY   71  52  50 NE5       30.25F
ISLIP          MOSUNNY   72  57  59 N7        30.25F
NEW YORK CITY  MOSUNNY   71  57  61 NE8       30.25S
CENTRAL PARK   SUNNY     71  54  54 E6        30.28S
$$

NYZ005>009-017-018-044>046-055-056-261500-
CENTRAL


CITY           SKY/WX    TMP DP  RH WIND       PRES   REMARKS
FULTON         CLOUDY    68  61  78 S6        30.20F
SYRACUSE       CLOUDY    67  59  75 S6        30.22F
ROME           MOSUNNY   68  58  70 SE8       30.24F
ELMIRA         CLOUDY    65  58  78 SW7       30.23F
BINGHAMTON     CLOUDY    61  57  87 SW8       30.25F
$$

NYZ026>034-041>043-087-261500-
NORTH


CITY           SKY/WX    TMP DP  RH WIND       PRES   REMARKS
WATERTOWN      CLOUDY    70  62  76 SW12      30.20F
FORT DRUM      NOT AVBL
OGDENSBURG     CLOUDY    69  62  78 S5        30.20F
MASSENA        CLOUDY    69  62  78 S9        30.21F
SARANAC LAKE   MOSUNNY   61  57  87 S6        30.23F
PLATTSBURGH    SUNNY     66  59  78 SE9       30.22F
$$

NYZ001>004-010>016-019>021-085-261500-
WEST


CITY           SKY/WX    TMP DP  RH WIND       PRES   REMARKS
NIAGARA FALLS  MOSUNNY   68  55  63 S5        30.18F
BUFFALO        PTSUNNY   66  53  63 SE5       30.18F
DUNKIRK        MOSUNNY   69  59  70 S9        30.18F
JAMESTOWN      SUNNY     63  55  77 S6        30.21S
WELLSVILLE     CLOUDY    63  56  78 S6        30.24F
ROCHESTER      CLOUDY    68  57  68 VRB7      30.19F
PENN YAN       PTSUNNY   66  56  70 S10       30.22F
$$

             KEY
       WCI = WIND CHILL INDEX
       VSB = VISIBILITY
       HX  = HEAT INDEX
$$




USA.gov is the U.S. government's official web portal to all federal, state and local government web resources and services.